Погода Молчаново

Погода Молчаново : погода сейчас, прогноз погоды и архив. Всё, что Вы хотите узнать о погоде Молчаново!

Поиск расширенной информации на нашем сайте:

Другие новости

Новости СМИ2

Главная страница сайта

Новости сайта

02.10.2013

Напоминаем, что на нашем новом сайте вы можете получить высокодетализированные прогнозы погоды по пунктам России, СНГ и мира (включающие важные для авиации метеовеличины, такие как направление и скорость ветра, видимость, явления погоды, количество и форма облачности, нижняя и верхняя граница облачности), а также ознакомиться с разнообразными материалами по авиационной метеорологии и подборкой полезных ссылок на эту тему.

Сайт Метеоцентр.Азия посвящён разработке технологий оптимизации авиаметеорологического обслуживания, включая проектирование и перспективное создание нескольких автоматизированных авиаметеорологических систем:
- система выпуска высокодетальных прогностических карт явлений погоды для нижнего воздушного пространства по России и ближнему зарубежью;
- система верификации прогнозов TAF (выпускаемых синоптиками официальных АМСГ РФ и ближнего зарубежья) и AUTOTAF (выпускаемых сайтом Метеоцентр.Азия) - выявление ошибок, онлайн-сопоставление с фактической погодой METAR, автоматическое внесение коррективов в прогнозы при резком отклонении фактической погоды от прогноза, подсчёт оправдываемости прогнозов по элементам и в целом;
- система обработки, анализа и отображения авиаметеорологической информации для применения провайдерами метеорологической информации.


Погода Молчаново - сегодня

Время (UTC), дата Ветер
(°,м/с) 
Видим.   Явления Облачность Т
(°С)
Тd
(°С)
f(%) Тe
(°С)
Pmin
(гПа)
dP
(гПа)
Po
(мм)
O2
(г/м3)
Тmin Tmax R s Состояние
почвы
21 24.03.17 140 (ЮВ) 20000 м    10/0 верхняя 
[Ci fib]
-0.3 -13.4 36 -2  1018.6  -2.7  753  305           
00 25.03.17 130 (ЮВ) 20000 м    10/0 верхняя 
[Ci fib]
-2.3 -12.6 45 -4  1015.4  -3.3  751  306  -2.4      55  неравномерный
мокрый или
старый снег
100% 
03 25.03.17 140 (ЮВ) 20000 м    10/3 600 м средняя, верхняя 
[Sc|Ac trans|Ci fib]
+0.8 -11 41 -1  1012.8  -2.4  749  302           
06 25.03.17 180 (Ю) 20000 м  {ливн. осадки}  10/5 300 м кучево-дожд., средняя 
[Cb calv|Ac trans]
+2.7 -2.7 68 +1  1011.1  -1.6  748  299           
09 25.03.17 170 (Ю) 20000 м    10/8 600 м средняя 
[Sc|Ac As]
+3.6 -1.4 70 +3  1010.5  -0.6  747  297           
12 25.03.17 200 (Ю) 4{10}  10 км  слаб. ливневой дождь  10/8 300 м кучево-дожд., средняя 
[Cb calv|Ac As]
+1.7 +0.5 92 1011  0.4  748  299    +3.6  0.5     
15 25.03.17 220 (ЮЗ) 10 км  слаб. ливневой дождь  10/10 300 м кучево-дожд. 
[Cb calv]
+1.5 -0.1 89 -1  1012.4  1.4  749  300           
18 25.03.17 230 (ЮЗ) 4{11}  20000 м  {ливн. осадки}  3/3 300 м кучево-дожд. 
[Cb calv]
+0.2 -2.1 85 -2  1015.2  2.7  751  303           
21 25.03.17 220 (ЮЗ) 20000 м    3/0 верхняя 
[Ci fib]
-1.9 -4.4 83 -5  1017.8  2.5  753  306           
00 26.03.17 230 (ЮЗ) 20000 м    3/0 верхняя 
[Ci fib]
-3.2 -5.6 83 -5  1021.3  3.3  755  308  -3.2    0.4  53  неравномерный
мокрый или
старый снег
100% 
03 26.03.17 220 (ЮЗ) 20000 м    10/0 верхняя 
[Ci fib]
-0.9 -5.4 71 -3  1023.7  2.5  757  307  -3.5         
06 26.03.17 200 (Ю) 20000 м    10/0 верхняя 
[Ci fib]
+4.6 -6.9 43 +3  1023.2  -0.2  757  301           
09 26.03.17 170 (Ю) 20000 м    10/0 средняя, верхняя 
[Ac trans|Ci fib]
+5.6 -6.8 40 +4  1022  -1.1  756  299           
12 26.03.17 200 (Ю) 20000 м    10/0 верхняя 
[Ci fib]
+4.8 -7.7 40 +4  1020.6  -1.4  755  300    +5.8       
15 26.03.17 170 (Ю) 20000 м    3/0 верхняя 
[Ci fib]
+0.9 -5.4 63 1019.1  -1.7  754  303           
18 26.03.17 180 (Ю) 20000 м    4/0 верхняя 
[Ci fib]
-1 -5.8 70 -2  1018.1  -1.1  753  305           
21 26.03.17 090 (В) 20000 м    6/0 верхняя 
[Ci fib]
-3.2 -6.7 77 -3  1017.1  -1.1  752  307           
00 27.03.17 130 (ЮВ) 20000 м    10/0 верхняя 
[Ci fib]
-4.6 -6.6 86 -4  1015.8  -1.4  751  308  -4.7      51  неравномерный
мокрый или
старый снег
100% 
03 27.03.17 100 (В) 20000 м    10/0 верхняя 
[Ci fib]
-2 -5.3 78 -3  1014.6  -1  750  305           
06 27.03.17 120 (ЮВ) 20000 м    10/0 верхняя 
[Sc|Ci fib]
+2.7 -4 61 +1  1013.1  -1.2  749  299           
09 27.03.17 120 (ЮВ) 20000 м    10/8 600 м верхняя 
[Sc|Ci fib]
+4.4 -3.7 56 +4  1012.1  -0.9  749  297           
12 27.03.17 190 (Ю) 10 км    10/10 300 м 
+1.7 +0.3 90 +1  1013.5  1.2  750  300    +4.4  0.5     
15 27.03.17 200 (Ю) 20000 м  в посл. час ливневой снег  10/6 300 м кучево-дожд., средняя 
[Cb calv|Ac trans]
+0.6 -0.3 94 -2  1014.7  1.1  750  302           
18 27.03.17 210 (ЮЗ) 5{10}  20000 м  {ливн. осадки}  3/0 верхняя 
[Ci fib]
-0.1 -2.5 84 -3  1016.2  1.5  752  303           
21 27.03.17 220 (ЮЗ) 5{10}  20000 м    10/0 средняя 
[Ac und]
-0.1 -3 81 -3  1018.4  2.1  753  304           
Время (UTC), дата Ветер
(°,м/с) 
Видим.   Явления Облачность Т
(°С)
Тd
(°С)
f(%) Тe
(°С)
Pmin
(гПа)
dP
(гПа)
Po
(мм)
O2
(г/м3)
Тmin Tmax R s Состояние
почвы

Для получения пояснительной информации подведите курсор к названию столбца.

ПОГОДА Молчаново - архив

Всё, что Вы хотите узнать о погоде Молчаново - удобно и подробно!

Выберите нужную дату (начиная с 1 января 2015* года) и нажмите кнопку "Найти".
Будут отображены архивные сводки погоды по пункту Молчаново, начиная с указанной даты.


Отображать данные в формате CSV (для использования в таблицах Excel)


Внимание! Наш архив погоды предназначен исключительно для личного некоммерческого использования в познавательных целях. Если Вам необходимы официальные справки о состоянии погоды (для производственных, юридических, коммерческих и т.п. целей), обращайтесь в органы Росгидромета.

*Примечание: данная дата относится к архиву по метеостанциям СССР (Россия, СНГ, Балтия).
Архив по метеостанциям Зарубежной Европы и Азии (кроме Китая) хранится 10 дней, по другим регионам земного шара (Китай, Африка, Америка, Австралия, Океания) - 1 день.

Молчаново - район местоположения метеостанции


Название, широта, долгота, высота метеостанции:
Молчаново 57.6°ш. 83.8°д. 114 м над ур. моря [Российская Федерация]

Дополнительная информация

В oтличие oт бoльшинства пoгoдных сайтoв мы публикуем пoдрoбную метеoинфoрмацию в детальнoм прoфессиoнальнoм фoрмате.

Характеристики температуры и влажнoсти вoздуха измеряются на высoте 2 м в тени вдали oт зданий и деревьев.
Скoрoсть ветра измеряется на высoте 10 м (на урoвне рoста челoвека скoрoсть ветра ниже в 1.5-2 раза). Если метеoстанция нахoдится в гoрoде или в лесу, тo скoрoсть ветра занижена на 2-4 м/с пo сравнению с oткрытым местoм. Скoрoсть ветра над акватoриями крупных рек и oзёр, а также на вершинах хoлмoв на 2-5 м/с выше, чем в oбычных услoвиях.
Атмoсфернoе давление в разных тoчках местнoсти мoжет значительнo oтличаться oт давления на метеoстанции, в зависимoсти oт услoвий рельефа (при пoдъёме на 10 м давление пoнижается примернo на 1 мм рт.ст.).